257  
ASUS41 KAKQ 070016  
RWRAKQ  
 
REGIONAL WEATHER ROUNDUP  
NATIONAL WEATHER SERVICE WAKEFIELD VA  
800 PM EDT MON APR 06 2020  
 
NOTE: "FAIR" INDICATES FEW OR NO CLOUDS BELOW 12,000 FEET WITH NO  
SIGNIFICANT WEATHER AND/OR S TO VISIBILITY
. * = DENOTES  
STATION MAY NOT REPORT PRECIPITATION (E.G., RAIN,SNOW,ETC.),
 
THUNDER OR FOG.  
 
VAZ042-051-052>054-056-070100-  
NORTHERN VIRGINIA  
 
CITY SKY/WX TMP DP RH WIND PRES REMARKS
 
WASH NATIONAL FAIR 64 29 26 NW6 29.99S  
DULLES FAIR 58 30 34 NE6 29.98F  
FORT BELVOIR FAIR 63 27 26 CALM 29.98F  
QUANTICO FAIR 65 33 30 NE7 29.99S  
FREDERICKSBRG* FAIR 66 36 32 CALM 29.98S  
STAFFORD* FAIR 60 35 39 CALM 30.02S  
WARRENTON FAIR 58 29 33 E3 29.98S  
CULPEPER* FAIR 58 34 40 CALM 29.99S  
MANASSAS* FAIR 64 30 27 E5 29.99S  
LEESBURG* FAIR 63 32 31 E3 30.00F  
WINCHESTER FAIR 59 32 36 CALM 29.97S  
FRONT ROYAL* FAIR 61 32 33 CALM 29.96F  
LURAY* FAIR 59 45 58 CALM 29.98S  

 
 
VAZ048-049-060>072-079>083-070100-  
CENTRAL AND SOUTH CENTRAL VIRGINIA  
 
CITY SKY/WX TMP DP RH WIND PRES REMARKS
 
RICHMOND FAIR 64 54 69 SE10 29.98S  
CHESTERFIELD* FAIR 62 59 90 CALM 29.98S  
PETERSBURG* FAIR 60 57 91 SE3 29.99S  
HANOVER FAIR 60 50 69 CALM 29.99F  
TAPPAHANNOCK* FAIR 59 46 63 CALM 29.99S  
QUINTON* FAIR 63 52 67 CALM 29.98S  
CHARLOTTSVILLE CLOUDY 68 49 50 E3 29.98S  
GORDONSVILLE* CLOUDY 65 46 50 CALM 29.98S  
ORANGE* MOCLDY 61 46 59 CALM 29.98S  
LOUISA* FAIR 56 50 79 E3 30.02F  
BUMPASS* FAIR 61 46 57 CALM 29.98S  
FARMVILLE* FAIR 61 54 79 CALM 29.97S  
CREWE* FAIR 59 56 91 CALM 29.98S  
FORT PICKETT* FAIR 60 57 89 CALM 29.98F  
CHASE CITY* FAIR 66 54 63 E3 29.98R  
CLARKSVILLE* FAIR 63 63 100 CALM 29.97R  
SOUTH HILL* FAIR 62 55 77 CALM 30.04R  
LAWRENCEVILLE* FAIR 62 56 82 CALM 29.99S  
EMPORIA* FAIR 60 57 91 CALM 30.00S  

 
 
VAZ088>098-070100-  
SOUTHEAST VIRGINIA  
 
CITY SKY/WX TMP DP RH WIND PRES REMARKS
 
NORFOLK FAIR 58 51 78 E6 30.00F  
VIRGINIA BEACH MOCLDY 54 49 83 E5 30.00F  
NORFOLK NAVAL FAIR 56 51 84 E6 30.01F  
WEST POINT* FAIR 58 48 68 E5 30.01S  
SALUDA* FAIR 58 44 60 CALM 30.00S  
NEWPORT NEWS FAIR 58 50 75 E6 30.00F  
LANGLEY AFB NOT AVBL  
FORT EUSTIS FAIR 60 50 68 SE5 29.97F  
WILLIAMSBURG* FAIR 59 48 67 CALM 30.01S  
HR EXEC AP* FAIR 54 53 97 CALM 30.00F FOG  
FRANKLIN* FAIR 57 56 98 CALM 30.00F  
US460-WAKEFLD FAIR 58 56 93 CALM 30.00R  

 
 
VAZ020-022-025-037-045-070100-  
WEST CENTRAL AND SOUTHWEST VIRGINIA  
 
CITY SKY/WX TMP DP RH WIND PRES REMARKS
 
STAUNTON* FAIR 63 48 59 CALM 30.00S  
WAYNESBORO* FAIR 61 52 72 CALM 29.99S  
HOT SPRINGS VA FAIR 53 39 59 W13G24 30.06S  
LYNCHBURG FAIR 70 46 42 VRB3 29.98R  
DANVILLE FAIR 68 53 58 CALM 29.95F  
SOUTH BOSTON* CLOUDY 69 51 53 CALM 29.97R  
MARTINSVILLE FAIR 65 49 56 CALM 29.99S  
ROANOKE FAIR 69 48 47 N7 29.99S  
BLACKSBURG FAIR 65 47 53 CALM 30.04S  
DUBLIN* FAIR 66 47 50 NW3 30.03R  
MARION* FAIR 66 51 57 SW8 30.06S  
HILLSVILLE* FAIR 66 45 46 SW3 30.04R  
RICHLANDS* FAIR 61 39 43 NW5 30.06R  
WISE* FAIR 68 43 40 NW3 30.08R  
ABINGDON* FAIR 66 43 43 W7 30.05S  

 
 
MDZ021>025-VAZ099-100-070100-  
SOUTHERN MARYLAND AND THE DELMARVA PENINSULA  
 
CITY SKY/WX TMP DP RH WIND PRES REMARKS
 
PATUXENT RIVER FAIR 56 42 59 NE7 29.99F  
BAY BRIDGE APT FAIR 59 25 27 NE3 30.00R  
LEONARDTOWN FAIR 55 34 44 CALM 30.01S  
DOVER FAIR 50 45 81 E6 29.99R  
GEORGETOWN FAIR 53 43 68 S5 30.00S  
EASTON CLEAR 61 28 29 CALM 30.03S  
CAMBRIDGE CLEAR 55 34 44 CALM 30.00S  
SALISBURY FAIR 54 43 66 SE6 30.00S  
TANGIER NOT AVBL  
OCEAN CITY FAIR 49 42 77 CALM 30.02S  
WALLOPS ISLAND FAIR 48 43 82 SE5 30.02S  
ACCOMACK* FAIR 51 46 83 CALM 30.01F  

 
 
NCZ012>017-030>032-070100-  
NORTH CENTRAL AND EASTERN NORTH CAROLINA  
 
CITY SKY/WX TMP DP RH WIND PRES REMARKS
 
ROANOKE RAPIDS FAIR 61 59 94 E3 29.98S  
RALEIGH FAIR 63 58 83 CALM 29.97S  
ELIZABETH CITY FAIR 59 53 80 NE5 30.01F  
AHOSKIE* FAIR 60 58 91 CALM 29.99F  
EDENTON* FAIR 60 58 92 E8 30.01S  
CURRITUCK* MOCLDY 57 55 91 CALM N/A  
KILL DEVIL HLS MOCLDY 55 51 88 CALM 29.99F  
MANTEO MOCLDY 55 52 89 E6 30.02F  
CAPE HATTERAS CLOUDY 63 57 81 SW9 29.98S  
TARBORO* FAIR 61 59 94 NE3 29.98S  
GOLDSBORO MOCLDY 66 59 77 S3 29.96R THUNDER  
WASHINGTON FAIR 60 57 91 NE9 29.99S  
GREENVILLE FAIR 63 59 88 E6 30.00R  
NEW BERN CLOUDY 61 59 93 S6 30.00F  
WILMINGTON FAIR 69 55 60 SW12 29.99F  

 
 
VAZ048-070100-  
ELSEWHERE  
 
CITY SKY/WX TMP DP RH WIND PRES REMARKS
 
HARRISBURG PA FAIR 57 39 51 CALM 29.97S  
BALTIMORE FAIR 63 25 23 CALM 29.98S  
ANNAPOLIS FAIR 57 44 62 SE5 29.99S  
ANDREWS AFB FAIR 59 29 31 E6 29.98S  
PHILADELPHIA FAIR 63 22 20 NW7 29.97S  
HENDERSON NC FAIR 61 57 85 CALM 29.97S  
GREENSBORO FAIR 67 55 65 SW6 29.96S  
ROCKY MOUNT FAIR 63 60 90 NE6 29.98R  

 
 
VAZ100-070100-  
MARINE  
 
STATION/POSITION TIME TEMP WIND PRES WAVE SWELL
 
AIR SEA DIR/SP/G HT/PER HT/PER  
(UTC) (F) (DEG/KT/KT) (MB) (FT/S) (FT/S)  
CAPE MAY NJ 2324 49 53 150/ 5/ 8 1015.7  
LEWES DE 2324 51 53 180/ 7/ 9 1015.9  
15NM E FENWICK I 2350 48 51 170/ 6/ 6 1012.4R 4/12 3/12  
OCEAN-CITY-INLET 2324 50 51 200/ 5/ 7 1017.0F  
WACHAPREAGUE VA 2324 51 58 100/ 5/ 6 1016.3F  
THOMAS POINT MD 0000 61 54 130/ 3/ 4 1016.6S  
GOOSES REEF MD 2354 57 260/ 2/ 2 N/A  
COVE POINT MD 2324 310/ 2/ 3 1016.0  
SOLOMONS ISLAND 2324 62 54 90/ 6/ 6 1015.3  
BISHOPS HEAD MD 2324 58 60 260/ 5/ 6 1015.5  
PINEY POINT MD 2324 150/ 1/ 2 N/A  
POTOMAC MD 2354 56 70/ 4/ 8 1015.6F  
CAMBRIDGE MD 2324 65 57 280/ 2/ 3 1015.6  
LEWISETTA VA 2324 60 58 160/ 4/ 5 1015.5  
RAPPAHANNOCK LGT 2324 130/ 12/ 12 1016.9F  
STINGRAY PT 2348 56 170/ 10/ 10 1019.2F  
YORK RVR RNG VA 2324 56 150/ 9/ 11 1016.6  
YORKTOWN VA 2324 59 57 130/ 8/ 10 1015.4  
DOMINION TERM VA 2330 56 40/ 2/ 5 1016.1F  
KIPTOPEKE VA 2324 56 110/ 5/ 8 N/A  
CAPE HENRY VA 2324 54 100/ 6/ 8 1016.4  
WILLOUBY STN VA 2324 55 100/ 12/ 13 1015.3  
S CRANEY ISL VA 2324 59 80/ 6/ 8 1015.5  
CAPE HENRY BUOY 2330 54 N/A 3/13 2/13  
1ST LANDING BUOY 2350 120/ 8/ 10 1015.8F  
DUCK PIER NC 2324 56 70/ 4/ 5 1016.3  
44100 DUCK FRF 0000 52 N/A 4/12 3/12  
44056 DUCK FRF 0000 56 N/A 3/13 3/13  
OREGON INLET NC 2318 57 59 30/ 5/ 8 1016.4  
HATTERAS NC 2324 62 59 220/ 10/ 15 1014.9  
DIAMOND SHLS NC 2350 70 74 240/ 21/ 27 N/A 6/13  
CAPE LOOKOUT NC 2300 67 240/ 16/ 21 1015.4R  

 
 
 
CLICK HERE TO GO TO PREVIOUS BULLETINS.

The Nexlab VA Page
The Nexlab NC Page
The Nexlab MD Page Main Text Page